Regional Weather Roundup
Issued by NWS

Home | Current Version | Previous Version | Graphics & Text | Print | Product List | Glossary On
Versions: 1 2 3 4 5 6 7 8 9 10 11 12 13 14 15 16 17 18 19 20 21 22 23 24 25 26 27 28
000
ASUS45 KTFX 061710
RWRMT
MONTANA REGIONAL WEATHER ROUNDUP
NATIONAL WEATHER SERVICE GREAT FALLS MT
1000 AM MST TUE DEC 06 2016

NOTE: "FAIR" INDICATES FEW OR NO CLOUDS BELOW 12000 FEET WITH NO
SIGNIFICANT WEATHER AND/OR OBSTRUCTIONS TO VISIBILITY.

MTZ001>007-043-061800-
WEST OF THE DIVIDE

CITY           SKY/WX    TMP DP  RH WIND       PRES   REMARKS
KALISPELL      MOSUNNY   15   4  61 NE20G25   30.02R WCI  -2
MISSOULA       CLOUDY    19   8  62 SE21      29.97R WCI   3
BUTTE          CLOUDY    10   2  69 SE5       29.84S
MULLAN PASS    CLOUDY     8   6  92 E7        29.75R WCI  -3
ANACONDA         N/A      9   3  78 N6        29.89S WCI  -1
DEER LODGE       N/A      9   3  78 NW6       29.94S WCI  -1
EUREKA           N/A      7   3  85 CALM      30.10R
HAMILTON         N/A     18  12  79 CALM      29.92S
LIBBY            N/A     18  14  86 CALM      30.05R
PLAINS           N/A     16   8  70 CALM      30.01R
RONAN            N/A     20  15  81 CALM      29.99R
$$

MTZ008-052>055-061800-
SOUTHWEST MONTANA

CITY           SKY/WX    TMP DP  RH WIND       PRES   REMARKS
BOZEMAN        CLOUDY    11   5  77 N10       29.96S WCI  -3
DILLON         CLOUDY     7  -1  70 S5        29.87R
W YELLOWSTONE  CLOUDY     1   0  92 CALM      29.81S
ENNIS          MOSUNNY    9   3  78 CALM      29.92S
THREE FORKS      N/A     12 -33  11 N7        29.97S WCI   1
TWIN BRIDGES     N/A     12   2  64 N10       29.89R WCI  -1
$$

MTZ009-010-012-014-046-048-049-054-061800-
EAST SLOPES AND CENTRAL MONTANA

CITY           SKY/WX    TMP DP  RH WIND       PRES   REMARKS
CUT BANK       CLOUDY    -3  -8  79 N13       30.16R HAZE    WCI -22
GREAT FALLS    CLOUDY     0  -6  76 N8        30.16R WCI -14
MALMSTROM AFB  FLURRIES   1  -4  79 NW3       30.19R
HELENA         CLOUDY     8  -1  66 NW9       30.06S WCI  -5
AUGUSTA        FLURRIES  -3  -8  80 N16       30.08R WCI -24
BOWMANS CRNR   CLOUDY    -3  -6  86 NE12      30.07R WCI -21
CHOTEAU          N/A      0  -8  71 MISG      30.16R
CONRAD           N/A      0  -6  75 NW10      30.16R WCI -16
FAIRFIELD      FLURRIES  -1  -7  74 NW12      30.14R WCI -18
POWER          FLURRIES  -1  -6  81 NW12      30.14R WCI -19
RAYNESFORD     LGT SNOW  -1  -5  82 N6        30.11S WCI -12
ULM            SNOWSHWR   1  -4  78 N14       30.17R WCI -17
$$

MTZ011-013-016-021-045-047-050-051-061800-
NORTH CENTRAL MONTANA

CITY           SKY/WX    TMP DP  RH WIND       PRES   REMARKS
HAVRE          PTSUNNY    1  -7  68 NW17      30.25S WCI -19
LEWISTOWN      CLOUDY     0  -3  87 NW8       30.07S WCI -14
N BAR RANCH      N/A      5  -4  66 NW7       30.02R WCI  -7
CHINOOK          N/A      0  -8  71 W18       30.25S WCI -22
DENTON         FLURRIES  -1  -4  85 NW15G32   30.10S WCI -20
GEYSER         PTSUNNY    1  -5  77 W15       30.08R WCI -18
GRASS RANGE      N/A      3  -2  79 W22       30.04S WCI -19
JUDITH GAP     PTSUNNY    0  -4  83 N22G30    29.98F WCI -23
ROY              N/A      2  -2  85 MISG      30.08R
STANFORD         N/A     -3  -6  88 SW1       30.05R
WINIFRED         N/A     -1  -4  87 MISG      30.11R
$$

MTZ017>020-022>027-061-062-061800-
NORTHEAST MONTANA

CITY           SKY/WX    TMP DP  RH WIND       PRES   REMARKS
GLASGOW        SUNNY      0  -8  69 NW30      30.16R WCI -26
JORDAN           N/A      3  -5  69 NW17      30.15R WCI -17
SIDNEY         CLOUDY     3  -4  72 NW22G32   30.09R WCI -19
WOLF POINT     CLOUDY     4  -7  60 W20       30.16R WCI -17
PLENTYWOOD       N/A      3  -2  78 NW25      30.00R VSB 1   WCI -20
POPLAR           N/A      3  -8  60 NW16      30.13R WCI -16
SCOBEY           N/A      0 -12  56 NW22      30.04R WCI -23
$$

MTZ028>42-056>058-061800-
SOUTHCENTRAL AND SOUTHEAST MONTANA

CITY           SKY/WX    TMP DP  RH WIND       PRES   REMARKS
BAKER          LGT SNOW   4  -2  76 NW24G32   30.03R WCI -19
BILLINGS       FLURRIES  10   5  80 S5        30.07S
LIVINGSTON     CLOUDY     8   2  76 NE6       29.96S WCI  -2
MILES CITY     SUNNY      6  -5  60 NW22G28   30.14R WCI -15
BIG TIMBER     CLOUDY     7   3  85 NE5       30.02S
EKALAKA          N/A      0  -7  72 W20       29.96R WCI -22
FORSYTH          N/A      7  -2  66 W13G21    30.16R WCI  -9
HARLOWTON      CLOUDY     5  -1  77 N17       30.00R WCI -15
LAUREL           N/A     10   0  64 N1        30.04R
ROUNDUP          N/A      6  -3  66 NE1       30.00R
$$

REGIONAL REPORTS...DAKOTAS

CITY           SKY/WX    TMP DP  RH WIND       PRES   REMARKS
WILLISTON      CLOUDY     5  -2  72 NW22      30.04R WCI -16
MINOT          SNOW      10   6  84 W36       29.82R VSB 1/4 WCI -14
DICKINSON      MIX PCPN   1  -5  75 NW30G40   29.93R VSB 1   WCI -24
CROSBY         LGT SNOW   5   1  85 NW29G36   30.00R WCI -19
TIOGA          LGT SNOW   5   3  92 NW28G36   29.95R WCI -18
WATFORD CITY   PTSUNNY    1  -2  85 W21G26    30.02R WCI -20
BISMARCK       LGT SNOW   9   6  88 NW24G38   29.87R VSB 1   WCI -12
GRAND FORKS    LGT SNOW  26  22  84 N23       29.34R VSB 3/4 WCI  11
FARGO          SNOW      22  18  85 W36G43    29.44R VSB 1/2 WCI   3
BUFFALO SD       N/A      6  -2  69 NW31G41   29.92R WCI -18
RAPID CITY     SUNNY     18   2  49 N17       29.98R WCI   3
$$

REGIONAL REPORTS...WYOMING/IDAHO/WASHINGTON

CITY           SKY/WX    TMP DP  RH WIND       PRES   REMARKS
GILLETTE       MOSUNNY    4   1  88 W8        29.99S WCI  -9
SHERIDAN       CLOUDY     9   2  73 NW12      30.04R WCI  -6
BUFFALO WY     CLOUDY     7   2  80 CALM      29.97R
CODY           MOSUNNY   15   6  67 CALM      29.94R
YELLOWSTONE LA   N/A      2  -2  83 VRB3      29.76S
IDAHO FALLS    CLOUDY    13   6  74 NW9       29.86S WCI   1
SALMON         CLOUDY     9   5  85 CALM      29.93S VSB 1
BOISE          SNOW      23  21  92 SE5       29.91R VSB 1/2
SPOKANE        PTSUNNY   23  13  65 N8        29.98R WCI  14
$$

REGIONAL REPORTS...ALBERTA

CITY           SKY/WX    TMP DP  RH WIND       PRES   REMARKS
EDMONTON       FLURRIES  -2 -13  60 NW13      30.34R WCI -21
CALGARY        MOCLDY    -6 -15  65 NW10G17   30.19S WCI -23
LETHBRIDGE     PTSUNNY   -4 -11  71 W6        30.27R WCI -16
MEDICINE HAT   PTSUNNY   -4  -9  77 W10       30.29S WCI -21
WATERTON GATE    N/A     -4  -8  84 CALM        N/A
CARDSTON         N/A     -2  -9  71 CALM        N/A
MILK RIVER       N/A     -4  -9  77 NW13        N/A  WCI -23
ONEFOUR          N/A     -8 -11  84 NW18        N/A  WCI -31
$$

REGIONAL REPORTS...SASKATCHEWAN

CITY           SKY/WX    TMP DP  RH WIND       PRES   REMARKS
SWIFT CURRENT  LGT SNOW  -4  -8  84 NW22G31   30.10R WCI -28
REGINA         LGT SNOW   3  -2  78 NW24G32   30.05R BLWGSNOWWCI -20
SASKATOON      MOSUNNY    1  -8  66 NW17G26   30.16S WCI -19
VAL MARIE        N/A     -2 -11  65 NW14        N/A  WCI -21
ASSINIBOIA       N/A     -2  -9  71 NW17G24     N/A  WCI -24
$$




USA.gov is the U.S. government's official web portal to all federal, state and local government web resources and services.